User: anonymous   Login
Location: Unspecified
(0.0000°N, 0.0000°E)
Time: 20:01:04
(UTC+00:00)
Language:

OAO 2 - Orbit

View from above orbital plane
View from above orbital plane
View from above satellite
View from above satellite

Ground track
Ground track

The orbit data is extracted from the following two-line orbital elements,

1  3597U 68110A   19340.56220292  .00000011  00000-0  84298-5 0  9993
2  3597  34.9952  42.9095 0006232 263.3158  96.6823 14.45842193688577
Epoch (UTC): 06 December 2019 13:29:34
Eccentricity: 0.0006232
inclination: 34.9952°
perigee height: 735 km
apogee height: 744 km
right ascension of ascending node: 42.9095°
argument of perigee: 263.3158°
revolutions per day: 14.45842193
mean anomaly at epoch: 96.6823°
orbit number at epoch: 68857

The dashed part of the orbit path shows where the satellite is in the earth's shadow,  

DLR